When you browse on this site, cookies collect data to enhance your experience and personalize the content and advertising you see.
Visit our Privacy Policy to learn more. By continuing to use the site, you agree to this use of cookies and data.
  • In Romania
  • List of Countries
  • For 7 days
  • Water Temperature
  • Satellite Maps
  • Weather Map
  • Weather Widgets
  • user-avatar
    Login

    Hourly Weather Lormont

    Today, 23 April, Tuesday

    Time Temperature Precipitation Wind Pressure Humidity
    00:00 +14°C° 0 mm 5 mps 747 mmHg 62%
    01:00 +13°C° 0 mm 5 mps 746 mmHg 66%
    02:00 +13°C° 0 mm 4 mps 746 mmHg 70%
    03:00 +13°C° 0 mm 4 mps 745 mmHg 75%
    04:00 +13°C° 0 mm 4 mps 745 mmHg 77%
    05:00 +13°C° 0 mm 4 mps 745 mmHg 79%
    06:00 +13°C° 0 mm 4 mps 744 mmHg 82%
    07:00 +15°C° 0 mm 4 mps 744 mmHg 76%
    08:00 +18°C° 0 mm 4 mps 744 mmHg 70%
    09:00 +20°C° 0 mm 5 mps 744 mmHg 64%
    10:00 +20°C° 0.1 mm 4 mps 744 mmHg 63%
    11:00 +20°C° 0.1 mm 4 mps 744 mmHg 62%
    12:00 +21°C° 0.1 mm 3 mps 744 mmHg 61%
    13:00 +21°C° 0.3 mm 3 mps 744 mmHg 58%
    14:00 +21°C° 0.3 mm 3 mps 744 mmHg 54%
    15:00 +21°C° 0.3 mm 2 mps 744 mmHg 50%
    16:00 +19°C° 0.4 mm 2 mps 744 mmHg 57%
    17:00 +18°C° 0.4 mm 3 mps 744 mmHg 64%
    18:00 +16°C° 0.4 mm 3 mps 745 mmHg 71%
    19:00 +15°C° 0.8 mm 2 mps 745 mmHg 76%
    20:00 +14°C° 0.8 mm 1 mps 746 mmHg 82%
    21:00 +13°C° 0.8 mm 0 mps 747 mmHg 87%
    22:00 +13°C° 0.1 mm 1 mps 748 mmHg 88%
    23:00 +13°C° 0.1 mm 1 mps 748 mmHg 89%

    Tomorrow, 24 April, Wednesday

    Time Temperature Precipitation Wind Pressure Humidity
    00:00 +12°C° 0.1 mm 2 mps 749 mmHg 90%
    01:00 +12°C° 0 mm 2 mps 749 mmHg 89%
    02:00 +10°C° 0 mm 2 mps 749 mmHg 89%
    03:00 +9°C° 0 mm 2 mps 749 mmHg 89%
    04:00 +10°C° 0 mm 2 mps 749 mmHg 88%
    05:00 +10°C° 0 mm 2 mps 750 mmHg 87%
    06:00 +10°C° 0 mm 2 mps 750 mmHg 87%
    07:00 +11°C° 0.1 mm 3 mps 750 mmHg 77%
    08:00 +13°C° 0.1 mm 4 mps 750 mmHg 67%
    09:00 +14°C° 0.1 mm 5 mps 750 mmHg 57%
    10:00 +15°C° 0 mm 6 mps 750 mmHg 49%
    11:00 +17°C° 0 mm 6 mps 749 mmHg 42%
    12:00 +18°C° 0 mm 7 mps 749 mmHg 34%
    13:00 +17°C° 0 mm 6 mps 749 mmHg 40%
    14:00 +16°C° 0 mm 6 mps 749 mmHg 46%
    15:00 +15°C° 0 mm 5 mps 749 mmHg 51%
    16:00 +15°C° 0 mm 5 mps 749 mmHg 52%
    17:00 +16°C° 0 mm 5 mps 748 mmHg 53%
    18:00 +16°C° 0 mm 5 mps 748 mmHg 53%
    19:00 +15°C° 0.6 mm 5 mps 748 mmHg 63%
    20:00 +14°C° 0.6 mm 6 mps 749 mmHg 72%
    21:00 +13°C° 0.6 mm 6 mps 749 mmHg 81%
    22:00 +13°C° 0.6 mm 6 mps 749 mmHg 83%
    23:00 +11°C° 0.6 mm 6 mps 749 mmHg 84%

    Day after tomorrow, 25 April, Thursday

    Time Temperature Precipitation Wind Pressure Humidity
    00:00 +11°C° 0.6 mm 6 mps 749 mmHg 86%
    01:00 +12°C° 0.4 mm 5 mps 750 mmHg 86%
    02:00 +11°C° 0.4 mm 4 mps 751 mmHg 87%
    03:00 +11°C° 0.4 mm 3 mps 751 mmHg 87%
    04:00 +10°C° 0.5 mm 3 mps 752 mmHg 88%
    05:00 +10°C° 0.5 mm 2 mps 752 mmHg 89%
    06:00 +10°C° 0.5 mm 2 mps 753 mmHg 90%
    07:00 +11°C° 0 mm 3 mps 753 mmHg 84%
    08:00 +12°C° 0 mm 3 mps 754 mmHg 78%
    09:00 +13°C° 0 mm 3 mps 754 mmHg 73%
    10:00 +14°C° 0.2 mm 4 mps 755 mmHg 66%
    11:00 +14°C° 0.2 mm 4 mps 755 mmHg 60%
    12:00 +15°C° 0.2 mm 5 mps 755 mmHg 54%
    13:00 +16°C° 0.1 mm 5 mps 756 mmHg 47%
    14:00 +17°C° 0.1 mm 5 mps 756 mmHg 40%
    15:00 +19°C° 0.1 mm 5 mps 756 mmHg 34%
    16:00 +18°C° 0 mm 4 mps 757 mmHg 37%
    17:00 +17°C° 0 mm 3 mps 757 mmHg 41%
    18:00 +16°C° 0 mm 2 mps 757 mmHg 45%
    19:00 +14°C° 0 mm 2 mps 758 mmHg 51%
    20:00 +13°C° 0 mm 2 mps 759 mmHg 57%
    21:00 +11°C° 0 mm 1 mps 760 mmHg 63%
    22:00 +10°C° 0.2 mm 2 mps 760 mmHg 67%
    23:00 +10°C° 0.2 mm 2 mps 760 mmHg 72%

    26 April, Friday

    Time Temperature Precipitation Wind Pressure Humidity
    00:00 +10°C° 0.2 mm 3 mps 761 mmHg 76%
    01:00 +10°C° 0.7 mm 3 mps 761 mmHg 79%
    02:00 +10°C° 0.7 mm 4 mps 761 mmHg 81%
    03:00 +9°C° 0.7 mm 5 mps 762 mmHg 84%
    04:00 +9°C° 0.5 mm 5 mps 762 mmHg 84%
    05:00 +10°C° 0.5 mm 4 mps 763 mmHg 84%
    06:00 +10°C° 0.5 mm 4 mps 763 mmHg 84%
    07:00 +10°C° 0.4 mm 5 mps 764 mmHg 81%
    08:00 +11°C° 0.4 mm 6 mps 765 mmHg 77%
    09:00 +12°C° 0.4 mm 7 mps 765 mmHg 74%
    10:00 +12°C° 0.5 mm 7 mps 766 mmHg 72%
    11:00 +13°C° 0.5 mm 8 mps 766 mmHg 70%
    12:00 +15°C° 0.5 mm 8 mps 767 mmHg 68%
    13:00 +15°C° 0.4 mm 8 mps 767 mmHg 69%
    14:00 +14°C° 0.4 mm 7 mps 767 mmHg 69%
    15:00 +14°C° 0.4 mm 7 mps 768 mmHg 69%
    16:00 +14°C° 0.2 mm 6 mps 768 mmHg 71%
    17:00 +13°C° 0.2 mm 5 mps 769 mmHg 72%
    18:00 +13°C° 0.2 mm 4 mps 769 mmHg 74%
    19:00 +12°C° 0 mm 4 mps 770 mmHg 77%
    20:00 +11°C° 0 mm 3 mps 770 mmHg 80%
    21:00 +10°C° 0 mm 2 mps 771 mmHg 83%
    22:00 +10°C° 0 mm 2 mps 771 mmHg 81%
    23:00 +10°C° 0 mm 2 mps 771 mmHg 79%

    27 April, Saturday

    Time Temperature Precipitation Wind Pressure Humidity
    00:00 +10°C° 0 mm 2 mps 772 mmHg 78%
    01:00 +10°C° 0 mm 2 mps 771 mmHg 78%
    02:00 +10°C° 0 mm 2 mps 771 mmHg 77%
    03:00 +10°C° 0 mm 2 mps 771 mmHg 77%
    04:00 +10°C° 0 mm 2 mps 771 mmHg 79%
    05:00 +12°C° 0 mm 2 mps 771 mmHg 81%
    06:00 +12°C° 0 mm 2 mps 772 mmHg 82%
    07:00 +12°C° 0 mm 3 mps 772 mmHg 78%
    08:00 +13°C° 0 mm 3 mps 772 mmHg 74%
    09:00 +13°C° 0 mm 4 mps 772 mmHg 71%
    10:00 +14°C° 0 mm 4 mps 772 mmHg 72%
    11:00 +14°C° 0 mm 4 mps 772 mmHg 73%
    12:00 +14°C° 0 mm 4 mps 772 mmHg 74%
    13:00 +15°C° 0.2 mm 5 mps 772 mmHg 74%
    14:00 +15°C° 0.2 mm 5 mps 772 mmHg 75%
    15:00 +15°C° 0.2 mm 5 mps 771 mmHg 76%
    16:00 +15°C° 0.1 mm 4 mps 771 mmHg 76%
    17:00 +15°C° 0.1 mm 4 mps 771 mmHg 77%
    18:00 +14°C° 0.1 mm 3 mps 771 mmHg 77%
    19:00 +13°C° 0 mm 3 mps 772 mmHg 81%
    20:00 +12°C° 0 mm 2 mps 772 mmHg 86%
    21:00 +10°C° 0 mm 2 mps 773 mmHg 90%
    22:00 +10°C° 0 mm 1 mps 773 mmHg 90%
    23:00 +10°C° 0 mm 1 mps 773 mmHg 90%

    28 April, Sunday

    Time Temperature Precipitation Wind Pressure Humidity
    00:00 +9°C° 0 mm 1 mps 773 mmHg 90%
    01:00 +9°C° 0 mm 1 mps 773 mmHg 91%
    02:00 +8°C° 0 mm 1 mps 772 mmHg 93%
    03:00 +8°C° 0 mm 1 mps 772 mmHg 94%
    04:00 +8°C° 0 mm 1 mps 772 mmHg 92%
    05:00 +8°C° 0 mm 1 mps 772 mmHg 91%
    06:00 +8°C° 0 mm 1 mps 772 mmHg 89%
    07:00 +11°C° 0 mm 1 mps 772 mmHg 78%
    08:00 +13°C° 0 mm 1 mps 772 mmHg 67%
    09:00 +15°C° 0 mm 2 mps 772 mmHg 56%
    10:00 +16°C° 0 mm 2 mps 771 mmHg 50%
    11:00 +18°C° 0 mm 2 mps 771 mmHg 44%
    12:00 +19°C° 0 mm 2 mps 770 mmHg 38%
    13:00 +20°C° 0 mm 2 mps 769 mmHg 37%
    14:00 +20°C° 0 mm 2 mps 769 mmHg 37%
    15:00 +21°C° 0 mm 2 mps 768 mmHg 36%
    16:00 +20°C° 0 mm 2 mps 768 mmHg 42%
    17:00 +19°C° 0 mm 2 mps 768 mmHg 48%
    18:00 +18°C° 0 mm 2 mps 767 mmHg 54%
    19:00 +16°C° 0 mm 2 mps 767 mmHg 60%
    20:00 +15°C° 0 mm 2 mps 767 mmHg 66%
    21:00 +13°C° 0 mm 2 mps 768 mmHg 72%
    22:00 +12°C° 0 mm 2 mps 767 mmHg 75%
    23:00 +12°C° 0 mm 1 mps 767 mmHg 78%
    Show more